EW2927 Weather Reports


Display with metric or nautical units.
time (UTC)temp
F
wind
direction
speed
MPH
gust
MPH
rain 1hr
in
rain 24hr
in
rain mn
in
humidity
%
barometer
mb
20180624223025 96 282 1.0 4.0 0.00 0.00 0.00 60 1014.6
20180624222021 95 281 2.0 4.0 0.00 0.00 0.00 57 1014.5
20180624221021 95 230 1.0 3.0 0.00 0.00 0.00 59 1014.4
20180624220024 94 225 1.0 3.0 0.00 0.00 0.00 59 1014.4
20180624215021 94 196 2.0 3.0 0.00 0.00 0.00 61 1014.6
20180624214020 95 217 1.0 3.0 0.00 0.00 0.00 59 1014.9
20180624213024 94 241 1.0 3.0 0.00 0.00 0.00 62 1015.2
20180624212020 93 184 2.0 4.0 0.00 0.00 0.00 62 1015.5
20180624211020 93 199 2.0 4.0 0.00 0.00 0.00 63 1015.6
20180624210024 93 191 2.0 7.0 0.00 0.00 0.00 61 1015.7
20180624205019 93 170 2.0 5.0 0.00 0.00 0.00 59 1015.7
20180624204019 94 236 2.0 4.0 0.00 0.00 0.00 58 1015.7
20180624203022 94 244 2.0 7.0 0.00 0.00 0.00 65 1015.7
20180624202018 94 281 2.0 6.0 0.00 0.00 0.00 62 1015.8
20180624201017 94 275 3.0 7.0 0.00 0.00 0.00 62 1015.8
20180624200021 93 239 2.0 7.0 0.00 0.00 0.00 63 1016.0
20180624195017 93 181 1.0 3.0 0.00 0.00 0.00 67 1015.8
20180624194017 92 220 2.0 4.0 0.00 0.00 0.00 61 1016.0
20180624193021 93 312 3.0 7.0 0.00 0.00 0.00 64 1016.0
20180624192017 92 334 2.0 6.0 0.00 0.00 0.00 65 1016.1
20180624191016 92 296 2.0 6.0 0.00 0.00 0.00 64 1016.3
20180624190021 92 178 3.0 5.0 0.00 0.00 0.00 66 1016.4
20180624185015 92 248 2.0 6.0 0.00 0.00 0.00 63 1016.4
20180624184015 91 264 2.0 6.0 0.00 0.00 0.00 64 1016.8
20180624183020 91 315 3.0 8.0 0.00 0.00 0.00 66 1016.8
20180624182015 90 274 2.0 6.0 0.00 0.00 0.00 70 1017.0
20180624181014 90 276 4.0 8.0 0.00 0.00 0.00 69 1017.2
20180624180018 91 281 3.0 8.0 0.00 0.00 0.00 68 1017.3
20180624175014 91 250 3.0 10.0 0.00 0.00 0.00 70 1017.5
20180624174014 91 241 3.0 8.0 0.00 0.00 0.00 68 1017.5
20180624173017 91 246 3.0 9.0 0.00 0.00 0.00 68 1017.6
20180624172013 91 276 3.0 8.0 0.00 0.00 0.00 67 1017.6
20180624171013 90 286 3.0 9.0 0.00 0.00 0.00 68 1017.6
20180624170017 90 275 2.0 8.0 0.00 0.00 0.00 69 1017.6
20180624165013 90 242 3.0 8.0 0.00 0.00 0.00 70 1017.6
20180624164012 89 237 2.0 7.0 0.00 0.00 0.00 73 1017.6
20180624163016 89 225 3.0 7.0 0.00 0.00 0.00 74 1017.6
20180624162012 88 245 3.0 10.0 0.00 0.00 0.00 75 1017.8
20180624161011 88 258 2.0 7.0 0.00 0.00 0.00 75 1017.7
20180624160015 87 255 3.0 10.0 0.00 0.00 0.00 75 1017.7
20180624155011 88 258 2.0 7.0 0.00 0.00 0.00 75 1017.7
20180624154010 88 246 2.0 8.0 0.00 0.00 0.00 74 1017.8
20180624153014 87 268 2.0 8.0 0.00 0.00 0.00 78 1017.6
20180624152010 86 223 2.0 7.0 0.00 0.00 0.00 76 1017.5
20180624151009 87 271 3.0 7.0 0.00 0.00 0.00 76 1017.5
20180624150014 86 254 3.0 8.0 0.00 0.00 0.00 79 1017.6
20180624145009 85 233 2.0 7.0 0.00 0.00 0.00 81 1017.5
20180624144009 85 207 2.0 8.0 0.00 0.00 0.00 79 1017.5
20180624143013 86 199 3.0 9.0 0.00 0.00 0.00 79 1017.4
20180624142008 85 222 3.0 9.0 0.00 0.00 0.00 81 1017.4
20180624141008 85 208 3.0 10.0 0.00 0.00 0.00 80 1017.3
20180624140012 85 235 2.0 7.0 0.00 0.00 0.00 82 1017.2
20180624135007 84 257 3.0 8.0 0.00 0.00 0.00 82 1017.2
20180624134007 84 211 2.0 6.0 0.00 0.00 0.00 84 1017.2
20180624133011 83 240 3.0 6.0 0.00 0.00 0.00 83 1017.1
20180624132006 83 216 2.0 6.0 0.00 0.00 0.00 83 1017.2
20180624131007 82 229 2.0 6.0 0.00 0.00 0.00 83 1017.1
20180624130010 82 218 3.0 8.0 0.00 0.00 0.00 81 1016.9
20180624125006 81 200 3.0 9.0 0.00 0.00 0.00 80 1016.8
20180624124005 80 228 2.0 5.0 0.00 0.00 0.00 79 1016.8
20180624123009 80 215 2.0 8.0 0.00 0.00 0.00 75 1016.8
20180624122008 79 215 2.0 6.0 0.00 0.00 0.00 74 1016.7
20180624121005 79 213 1.0 6.0 0.00 0.00 0.00 73 1016.5
20180624120008 79 218 1.0 2.0 0.00 0.00 0.00 73 1016.5
20180624115004 78 235 1.0 6.0 0.00 0.00 0.00 73 1016.5
20180624114004 78 247 1.0 2.0 0.00 0.00 0.00 73 1016.4
20180624113007 78 242 1.0 2.0 0.00 0.00 0.00 73 1016.5
20180624112037 78 216 2.0 5.0 0.00 0.00 0.00 73 1016.4
20180624111037 78 263 1.0 3.0 0.00 0.00 0.00 73 1016.4
20180624110040 78 236 1.0 5.0 0.00 0.00 0.00 73 1016.4
20180624105036 78 221 2.0 5.0 0.00 0.00 0.00 73 1016.1
20180624104035 78 243 1.0 5.0 0.00 0.00 0.00 73 1016.0
20180624103040 78 225 1.0 8.0 0.00 0.00 0.00 74 1016.0
20180624102035 78 266 1.0 4.0 0.00 0.00 0.00 74 1015.7
20180624101035 78 235 2.0 8.0 0.00 0.00 0.00 74 1015.6
20180624100039 78 220 2.0 6.0 0.00 0.00 0.00 74 1015.5
20180624095034 77 205 1.0 3.0 0.00 0.00 0.00 74 1015.3
20180624094034 77 158 1.0 5.0 0.00 0.00 0.00 74 1015.3
20180624093127 77 178 1.0 3.0 0.00 0.00 0.00 74 1015.2
20180624092135 77 191 2.0 6.0 0.00 0.00 0.00 74 1015.0
20180624091135 78 198 2.0 5.0 0.00 0.00 0.00 74 1014.9
20180624090138 77 162 1.0 3.0 0.00 0.00 0.00 74 1015.0
20180624085134 77 187 1.0 3.0 0.00 0.00 0.00 74 1014.8
20180624084134 77 184 1.0 4.0 0.00 0.00 0.00 75 1014.8
20180624083137 78 200 1.0 3.0 0.00 0.00 0.00 75 1014.6
20180624082133 78 191 1.0 4.0 0.00 0.00 0.00 75 1014.4
20180624081133 78 174 1.0 5.0 0.00 0.00 0.00 76 1014.5
20180624080137 78 159 1.0 3.0 0.00 0.00 0.00 76 1014.4
20180624075132 78 185 2.0 7.0 0.00 0.00 0.00 76 1014.4
20180624074132 78 169 2.0 5.0 0.00 0.00 0.00 77 1014.4
20180624073136 78 161 2.0 6.0 0.00 0.00 0.00 77 1014.4
20180624072131 78 190 2.0 5.0 0.00 0.00 0.00 77 1014.4
20180624071133 78 178 2.0 5.0 0.00 0.00 0.00 77 1014.3
20180624070135 78 169 3.0 8.0 0.00 0.00 0.00 77 1014.3
20180624065130 78 179 2.0 6.0 0.00 0.00 0.00 77 1014.3
20180624064130 78 189 2.0 6.0 0.00 0.00 0.00 78 1014.3
20180624063134 78 183 2.0 7.0 0.00 0.00 0.00 78 1014.3
20180624062130 78 168 2.0 5.0 0.00 0.00 0.00 79 1014.3
20180624061129 79 167 2.0 7.0 0.00 0.00 0.00 79 1014.4
20180624060133 79 152 2.0 4.0 0.00 0.00 0.00 79 1014.4
20180624055128 79 163 2.0 9.0 0.00 0.00 0.00 79 1014.5
20180624054129 79 163 2.0 4.0 0.00 0.00 0.00 80 1014.5
20180624053132 79 184 2.0 6.0 0.00 0.00 0.00 80 1014.6
20180624052128 79 159 2.0 4.0 0.00 0.00 0.00 80 1014.6
20180624051128 79 172 2.0 5.0 0.00 0.00 0.00 80 1014.6
20180624050137 79 184 2.0 6.0 0.00 0.00 0.00 80 1014.6
20180624045128 79 171 1.0 4.0 0.00 0.00 0.00 81 1014.7
20180624044130 79 170 1.0 3.0 0.00 0.00 0.00 81 1014.6
20180624043133 80 177 1.0 2.0 0.00 0.00 0.00 82 1014.6
20180624042127 80 176 1.0 2.0 0.00 0.00 0.00 82 1014.7
20180624041126 80 181 1.0 4.0 0.00 0.00 0.00 82 1014.5
20180624040131 80 192 1.0 3.0 0.00 0.00 0.00 83 1014.6
20180624035126 80 148 2.0 5.0 0.00 0.00 0.00 83 1014.6
20180624034125 80 176 1.0 4.0 0.00 0.00 0.00 83 1014.5
20180624033129 81 147 2.0 4.0 0.00 0.00 0.00 83 1014.3
20180624032125 81 129 1.0 3.0 0.00 0.00 0.00 83 1014.2
20180624031124 81 130 1.0 3.0 0.00 0.00 0.00 84 1014.4
20180624030128 81 149 3.0 7.0 0.00 0.00 0.00 84 1014.1
20180624025124 81 145 4.0 6.0 0.00 0.00 0.00 84 1013.6
20180624024124 81 152 1.0 5.0 0.00 0.00 0.00 83 1013.7
20180624023128 81 0 0.0 0.0 0.00 0.00 0.00 82 1013.8
20180624022124 81 0 0.0 0.0 0.00 0.00 0.00 83 1013.6
20180624021123 81 0 0.0 0.0 0.00 0.00 0.00 84 1013.2
20180624020126 82 156 1.0 2.0 0.00 0.00 0.00 84 1013.1
20180624015123 82 157 1.0 3.0 0.00 0.00 0.00 83 1013.0
20180624014122 82 157 1.0 2.0 0.00 0.00 0.00 83 1012.7
20180624013126 82 157 2.0 4.0 0.00 0.00 0.00 83 1012.6
20180624012122 82 157 1.0 3.0 0.00 0.00 0.00 83 1012.6
20180624011121 83 156 0.0 1.0 0.00 0.00 0.00 82 1012.7
20180624010125 84 156 0.0 1.0 0.00 0.00 0.00 82 1012.7
20180624005121 85 157 0.0 1.0 0.00 0.00 0.00 81 1012.6
20180624004121 86 156 0.0 2.0 0.00 0.00 0.00 80 1012.5
20180624003124 87 156 1.0 2.0 0.00 0.00 0.00 78 1012.5
20180624002120 88 156 0.0 1.0 0.00 0.00 0.00 75 1012.6
20180624001120 90 156 0.0 1.0 0.00 0.00 0.00 74 1012.7
20180624000123 92 156 0.0 1.0 0.00 0.00 0.00 68 1012.8
20180623235119 93 156 0.0 1.0 0.00 0.00 0.00 69 1012.8
20180623234119 93 156 0.0 1.0 0.00 0.00 0.00 65 1012.7
20180623233123 93 156 1.0 2.0 0.00 0.00 0.00 62 1012.5
20180623232118 94 156 1.0 2.0 0.00 0.00 0.00 59 1012.4
20180623231118 94 159 1.0 3.0 0.00 0.00 0.00 58 1012.6
20180623230121 95 203 1.0 3.0 0.00 0.00 0.00 59 1012.4
20180623225117 94 194 1.0 3.0 0.00 0.00 0.00 55 1012.6
20180623224117 94 223 1.0 2.0 0.00 0.00 0.00 59 1012.6